Sign-in with your pilot id or email, or register

ICAO: EPKK Name / Country: Krakow Balice / Poland
Latitude: 50.0777 Longitude: 19.7848
Total Arrivals:
Deprecated: Non-static method AirportData::getarrflights() should not be called statically, assuming $this from incompatible context in /var/www/customers/vh-7192/web/home/phpvms/core/templates/airport_info.tpl on line 18
4
Total Departures:
Deprecated: Non-static method AirportData::getdeptflights() should not be called statically, assuming $this from incompatible context in /var/www/customers/vh-7192/web/home/phpvms/core/templates/airport_info.tpl on line 21
8
Latest Arrival: MTA11P (LHBP-EPKK) Tibor Berces Latest Departure: MTA11P (EPKK-LHBP) Tibor Berces
Metar: EPKK 241830Z 35014KT 9999 VCTS FEW008 SCT050CB 21/17 Q1015 RETS
More info

Charts for EPKK


NOTAM


Warning: file_get_contents(http://api.vateud.net/notams/EPKK.json): failed to open stream: HTTP request failed! HTTP/1.1 404 Not Found in /var/www/customers/vh-7192/web/home/phpvms/core/common/NOTAMSData.class.php on line 18

Warning: Invalid argument supplied for foreach() in /var/www/customers/vh-7192/web/home/phpvms/core/common/NOTAMSData.class.php on line 22

Krakow Balice